Alamogordo, NM

1:21 AM MDT on September 16, 2019 (GMT -0600)
Alamogordo-White Sands Regional

Weather History for KALM - July, 2019

Change the Weather History Date:

Saturday, July 20, 2019

  Actual Average Record
Temperature  
Mean Temperature 84 °F -  
Max Temperature 102 °F 92 °F 104 °F (1951)
Min Temperature 66 °F 65 °F 52 °F (1955)
Cooling Degree Days 19    
Growing Degree Days 34 (Base 50)    
Moisture  
Dew Point 46 °F    
Average Humidity 27    
Maximum Humidity 52    
Minimum Humidity 11    
Precipitation  
Precipitation 0.00 in - - ()
Sea Level Pressure  
Sea Level Pressure 29.98 in    
Wind  
Wind Speed 7 mph (South)    
Max Wind Speed 14 mph    
Max Gust Speed 20 mph    
Visibility 10 miles    
Events      
Averages and records for this station are not official NWS values.
T = Trace of Precipitation, MM = Missing Value Source: NWS Daily Summary

Daily Weather History Graph

Daily Weather History Graph

Search for Another Location

Airport or City:

Astronomy

Jul. 20, 2019 Rise Set
Actual Time 6:09 AM MDT 8:10 PM MDT
Civil Twilight 5:41 AM MDT 8:38 PM MDT
Nautical Twilight 5:08 AM MDT 9:11 PM MDT
Astronomical Twilight 4:32 AM MDT 9:47 PM MDT
Moon 10:49 PM MDT (7/20) 9:27 AM MDT (7/20)
Length of Visible Light 14h 56m
Length of Day
14h 01m
Waning Gibbous, 87% of the Moon is Illuminated
Jul 20
Waning Gibbous
Jul 24
Last Quarter
Jul 31
New
Aug 7
First Quarter
Aug 15
Full

Hourly Weather History & Observations

Time (MDT) Temp. Heat Index Dew Point Humidity Pressure Visibility Wind Dir Wind Speed Gust Speed Precip Events Conditions
12:15 AM 80.6 °F - 46.4 °F 30% 29.98 in 10.0 mi NE 8.1 mph - N/A   Clear
12:35 AM 78.8 °F - 46.4 °F 32% 29.98 in 10.0 mi ENE 8.1 mph - N/A   Clear
12:55 AM 77.0 °F - 46.4 °F 34% 29.98 in 10.0 mi ENE 6.9 mph - N/A   Clear
1:15 AM 73.4 °F - 46.4 °F 38% 29.98 in 10.0 mi South 4.6 mph - N/A   Clear
1:35 AM 73.4 °F - 46.4 °F 38% 29.98 in 10.0 mi SE 5.8 mph - N/A   Clear
1:55 AM 73.4 °F - 46.4 °F 38% 29.98 in 10.0 mi SE 8.1 mph - N/A   Clear
2:15 AM 73.4 °F - 46.4 °F 38% 29.97 in 10.0 mi ESE 4.6 mph - N/A   Clear
2:35 AM 73.4 °F - 44.6 °F 36% 29.97 in 10.0 mi East 5.8 mph - N/A   Clear
2:55 AM 73.4 °F - 44.6 °F 36% 29.98 in 10.0 mi ESE 4.6 mph - N/A   Clear
3:15 AM 75.2 °F - 44.6 °F 34% 29.99 in 10.0 mi NW 6.9 mph - N/A   Clear
3:35 AM 71.6 °F - 48.2 °F 43% 29.99 in 10.0 mi NW 6.9 mph - N/A   Clear
3:55 AM 71.6 °F - 48.2 °F 43% 30.00 in 10.0 mi East 8.1 mph - N/A   Clear
4:15 AM 69.8 °F - 48.2 °F 46% 30.00 in 10.0 mi East 10.4 mph - N/A   Clear
4:35 AM 69.8 °F - 48.2 °F 46% 30.00 in 10.0 mi East 9.2 mph - N/A   Clear
4:55 AM 71.6 °F - 48.2 °F 43% 30.00 in 10.0 mi East 6.9 mph - N/A   Clear
5:15 AM 71.6 °F - 48.2 °F 43% 30.00 in 10.0 mi Calm Calm - N/A   Clear
5:35 AM 71.6 °F - 48.2 °F 43% 30.00 in 10.0 mi Calm Calm - N/A   Clear
5:55 AM 68.0 °F - 48.2 °F 49% 30.01 in 10.0 mi SE 3.5 mph - N/A   Clear
6:15 AM 68.0 °F - 48.2 °F 49% 30.01 in 10.0 mi SSE 6.9 mph - N/A   Clear
6:35 AM 66.2 °F - 48.2 °F 52% 30.02 in 10.0 mi South 4.6 mph - N/A   Clear
6:55 AM 68.0 °F - 50.0 °F 52% 30.02 in 10.0 mi SSE 5.8 mph - N/A   Clear
7:15 AM 71.6 °F - 51.8 °F 50% 30.03 in 10.0 mi SSE 8.1 mph - N/A   Clear
7:35 AM 77.0 °F - 53.6 °F 44% 30.04 in 10.0 mi South 9.2 mph - N/A   Clear
7:55 AM 80.6 °F - 51.8 °F 37% 30.04 in 10.0 mi South 12.7 mph 17.3 mph N/A   Clear
8:15 AM 80.6 °F - 51.8 °F 37% 30.05 in 10.0 mi SSE 13.8 mph - N/A   Clear
8:35 AM 82.4 °F - 51.8 °F 35% 30.05 in 10.0 mi SSE 12.7 mph - N/A   Clear
8:55 AM 82.4 °F 81.4 °F 53.6 °F 37% 30.04 in 10.0 mi SSE 11.5 mph - N/A   Clear
9:15 AM 84.2 °F 82.8 °F 53.6 °F 35% 30.04 in 10.0 mi SE 11.5 mph - N/A   Clear
9:35 AM 86.0 °F 84.2 °F 53.6 °F 33% 30.04 in 10.0 mi South 10.4 mph - N/A   Clear
9:55 AM 86.0 °F 84.2 °F 53.6 °F 33% 30.04 in 10.0 mi South 10.4 mph - N/A   Clear
10:15 AM 87.8 °F - 51.8 °F 29% 30.04 in 10.0 mi South 9.2 mph - N/A   Clear
10:35 AM 89.6 °F - 51.8 °F 27% 30.04 in 10.0 mi SSW 9.2 mph - N/A   Clear
10:55 AM 89.6 °F - 51.8 °F 27% 30.04 in 10.0 mi SSE 9.2 mph - N/A   Clear
11:15 AM 91.4 °F - 50.0 °F 24% 30.04 in 10.0 mi South 11.5 mph - N/A   Clear
11:35 AM 91.4 °F - 50.0 °F 24% 30.04 in 10.0 mi South 8.1 mph - N/A   Clear
11:55 AM 93.2 °F - 48.2 °F 21% 30.03 in 10.0 mi SSE 4.6 mph - N/A   Clear
12:15 PM 93.2 °F - 48.2 °F 21% 30.02 in 10.0 mi SW 4.6 mph - N/A   Clear
12:35 PM 95.0 °F - 48.2 °F 20% 30.02 in 10.0 mi SW 9.2 mph - N/A   Clear
12:55 PM 95.0 °F - 46.4 °F 19% 30.01 in 10.0 mi South 5.8 mph - N/A   Clear
1:15 PM 95.0 °F - 48.2 °F 20% 30.00 in 10.0 mi South 9.2 mph - N/A   Clear
1:35 PM 96.8 °F - 46.4 °F 18% 29.99 in 10.0 mi SW 4.6 mph - N/A   Clear
1:55 PM 96.8 °F - 46.4 °F 18% 29.98 in 10.0 mi NNW 4.6 mph - N/A   Clear
2:15 PM 98.6 °F - 46.4 °F 17% 29.98 in 10.0 mi West 12.7 mph 16.1 mph N/A   Clear
2:35 PM 98.6 °F - 44.6 °F 16% 29.97 in 10.0 mi WSW 8.1 mph - N/A   Clear
2:55 PM 98.6 °F - 44.6 °F 16% 29.96 in 10.0 mi SSW 5.8 mph - N/A   Clear
3:15 PM 100.4 °F - 46.4 °F 16% 29.95 in 10.0 mi West 11.5 mph 19.6 mph N/A   Clear
3:35 PM 100.4 °F - 46.4 °F 16% 29.95 in 10.0 mi SSW 3.5 mph 19.6 mph N/A   Clear
3:55 PM 100.4 °F - 42.8 °F 14% 29.94 in 10.0 mi South 8.1 mph 17.3 mph N/A   Clear
4:15 PM 100.4 °F - 42.8 °F 14% 29.94 in 10.0 mi West 10.4 mph 17.3 mph N/A   Clear
4:35 PM 100.4 °F - 41.0 °F 13% 29.93 in 10.0 mi South 12.7 mph 17.3 mph N/A   Clear
4:55 PM 102.2 °F - 41.0 °F 12% 29.92 in 10.0 mi SSW 12.7 mph - N/A   Clear
5:15 PM 100.4 °F - 39.2 °F 12% 29.91 in 10.0 mi SE 4.6 mph - N/A   Clear
5:35 PM 102.2 °F - 37.4 °F 11% 29.91 in 10.0 mi West 5.8 mph 16.1 mph N/A   Clear
5:55 PM 102.2 °F - 37.4 °F 11% 29.90 in 10.0 mi SW 10.4 mph 16.1 mph N/A   Clear
6:15 PM 100.4 °F - 37.4 °F 11% 29.90 in 10.0 mi WNW 3.5 mph - N/A   Clear
6:35 PM 100.4 °F - 35.6 °F 11% 29.90 in 10.0 mi NNW 3.5 mph - N/A   Clear
6:55 PM 100.4 °F - 39.2 °F 12% 29.90 in 10.0 mi West 10.4 mph - N/A   Clear
7:15 PM 100.4 °F - 41.0 °F 13% 29.90 in 10.0 mi WSW 6.9 mph - N/A   Clear
7:35 PM 98.6 °F - 41.0 °F 14% 29.90 in 10.0 mi WSW 5.8 mph - N/A   Clear
7:55 PM 95.0 °F - 44.6 °F 18% 29.90 in 10.0 mi South 4.6 mph - N/A   Partly Cloudy
8:15 PM 93.2 °F - 42.8 °F 17% 29.90 in 10.0 mi SSW 5.8 mph - N/A   Partly Cloudy
8:35 PM 91.4 °F - 42.8 °F 18% 29.91 in 10.0 mi South 5.8 mph - N/A   Partly Cloudy
8:55 PM 89.6 °F - 42.8 °F 20% 29.91 in 10.0 mi SSE 4.6 mph - N/A   Clear
9:15 PM 91.4 °F - 41.0 °F 17% 29.93 in 10.0 mi SSE 4.6 mph - N/A   Clear
9:35 PM 91.4 °F - 42.8 °F 18% 29.94 in 10.0 mi Calm Calm - N/A   Clear
9:55 PM 91.4 °F - 42.8 °F 18% 29.95 in 10.0 mi SW 3.5 mph - N/A   Clear
10:15 PM 91.4 °F - 42.8 °F 18% 29.96 in 10.0 mi Calm Calm - N/A   Clear
10:35 PM 87.8 °F - 42.8 °F 21% 29.97 in 10.0 mi NNE 3.5 mph - N/A   Clear
10:55 PM 84.2 °F - 42.8 °F 23% 29.97 in 10.0 mi ENE 8.1 mph - N/A   Clear
11:15 PM 84.2 °F - 44.6 °F 25% 29.97 in 10.0 mi NE 9.2 mph - N/A   Clear
11:35 PM 84.2 °F - 44.6 °F 25% 29.97 in 10.0 mi ENE 8.1 mph - N/A   Clear
11:55 PM 82.4 °F - 44.6 °F 26% 29.98 in 10.0 mi ENE 6.9 mph - N/A   Clear